DW6794 Weather Reports


Display with metric or nautical units.
time (UTC)temp
F
wind
direction
speed
MPH
gust
MPH
rain 1hr
in
rain 24hr
in
rain mn
in
humidity
%
barometer
mb
20160629161610 81 269 3.0 6.0 0.00 0.00 0.00 64 1011.9
20160629160609 81 214 5.0 9.0 0.00 0.00 0.00 64 1011.9
20160629155610 81 274 3.0 7.0 0.00 0.00 0.00 66 1011.9
20160629154610 81 13 0.0 9.0 0.00 0.00 0.00 67 1012.0
20160629153610 80 248 0.0 0.0 0.00 0.00 0.00 68 1012.0
20160629152610 79 286 0.0 0.0 0.00 0.00 0.00 68 1012.1
20160629151610 79 284 0.0 0.0 0.00 0.00 0.00 69 1012.2
20160629150610 79 298 0.0 0.0 0.00 0.00 0.00 71 1012.3
20160629145610 79 22 0.0 0.0 0.00 0.00 0.00 73 1012.1
20160629144611 78 22 0.0 0.0 0.00 0.00 0.00 73 1012.3
20160629143611 78 22 0.0 0.0 0.00 0.00 0.00 74 1012.0
20160629142610 77 19 0.0 0.0 0.00 0.00 0.00 75 1012.0
20160629141611 78 19 0.0 0.0 0.00 0.00 0.00 76 1012.1
20160629140611 77 15 0.0 0.0 0.00 0.00 0.00 77 1012.3
20160629135610 77 15 0.0 0.0 0.00 0.00 0.00 77 1012.4
20160629134610 76 355 0.0 0.0 0.00 0.00 0.00 77 1012.4
20160629133610 75 355 0.0 0.0 0.00 0.00 0.00 78 1012.4
20160629132610 75 355 0.0 0.0 0.00 0.00 0.00 80 1012.3
20160629131610 74 342 0.0 0.0 0.00 0.00 0.00 81 1012.3
20160629130610 73 342 0.0 0.0 0.00 0.00 0.00 81 1012.6
20160629125611 72 342 0.0 0.0 0.00 0.00 0.00 82 1012.5
20160629124610 71 342 0.0 0.0 0.00 0.00 0.00 82 1012.4
20160629123610 70 342 0.0 0.0 0.00 0.00 0.00 83 1012.5
20160629122611 69 336 0.0 0.0 0.00 0.00 0.00 83 1012.5
20160629121611 68 336 0.0 0.0 0.00 0.00 0.00 83 1012.6
20160629120611 67 307 0.0 0.0 0.00 0.00 0.00 84 1012.4
20160629113611 64 23 0.0 0.0 0.00 0.00 0.00 84 1012.1
20160629112611 63 23 0.0 0.0 0.00 0.00 0.00 83 1012.1
20160629111611 62 273 0.0 0.0 0.00 0.00 0.00 83 1012.0
20160629110611 62 273 0.0 0.0 0.00 0.00 0.00 82 1011.9
20160629105611 62 273 0.0 0.0 0.00 0.00 0.00 82 1011.9
20160629104611 62 273 0.0 0.0 0.00 0.00 0.00 82 1012.1
20160629103611 62 273 0.0 0.0 0.00 0.00 0.00 82 1011.9
20160629102611 62 273 0.0 0.0 0.00 0.00 0.00 82 1011.7
20160629101611 62 273 0.0 0.0 0.00 0.00 0.00 82 1011.6
20160629100611 62 273 0.0 0.0 0.00 0.00 0.00 82 1011.6
20160629095611 62 273 0.0 0.0 0.00 0.00 0.00 82 1011.4
20160629094611 62 273 0.0 0.0 0.00 0.00 0.00 82 1011.3
20160629093611 61 273 0.0 0.0 0.00 0.00 0.00 81 1011.0
20160629092611 61 273 0.0 0.0 0.00 0.00 0.00 81 1011.0
20160629091611 62 273 0.0 0.0 0.00 0.00 0.00 81 1011.0
20160629085611 62 273 0.0 0.0 0.00 0.00 0.00 81 1010.8
20160629084611 62 273 0.0 0.0 0.00 0.00 0.00 81 1010.7
20160629082612 62 273 0.0 0.0 0.00 0.00 0.00 80 1010.7
20160629081612 62 273 0.0 0.0 0.00 0.00 0.00 81 1010.7
20160629080612 62 273 0.0 0.0 0.00 0.00 0.00 81 1010.6
20160629075611 62 273 0.0 0.0 0.00 0.00 0.00 80 1010.4
20160629074612 62 273 0.0 0.0 0.00 0.00 0.00 79 1010.4
20160629072612 62 273 0.0 0.0 0.00 0.00 0.00 79 1010.4
20160629071612 62 273 0.0 0.0 0.00 0.00 0.00 78 1010.5
20160629070612 62 273 0.0 0.0 0.00 0.00 0.00 78 1010.6
20160629065612 62 273 0.0 0.0 0.00 0.00 0.00 77 1010.5
20160629064611 63 273 0.0 0.0 0.00 0.00 0.00 77 1010.4
20160629063612 63 273 0.0 0.0 0.00 0.00 0.00 77 1010.4
20160629062612 63 273 0.0 0.0 0.00 0.00 0.00 77 1010.4
20160629061612 63 273 0.0 0.0 0.00 0.00 0.00 76 1010.4
20160629060612 63 273 0.0 0.0 0.00 0.00 0.00 76 1010.6
20160629055612 63 273 0.0 0.0 0.00 0.00 0.00 75 1010.6
20160629054612 64 273 0.0 0.0 0.00 0.00 0.00 75 1010.8
20160629053612 64 273 0.0 0.0 0.00 0.00 0.00 75 1010.8
20160629044611 65 273 0.0 0.0 0.00 0.00 0.00 74 1010.8
20160629043612 65 273 0.0 0.0 0.00 0.00 0.00 73 1011.0
20160629042612 65 273 0.0 0.0 0.00 0.00 0.00 72 1011.1
20160629041612 65 273 0.0 0.0 0.00 0.00 0.00 72 1011.1
20160629040612 66 273 0.0 0.0 0.00 0.00 0.00 71 1011.1
20160629035612 66 273 0.0 0.0 0.00 0.00 0.00 71 1010.9
20160629034613 66 273 0.0 0.0 0.00 0.00 0.00 70 1010.9
20160629032613 67 273 0.0 0.0 0.00 0.15 0.00 69 1010.9
20160629031612 68 273 0.0 0.0 0.00 0.15 0.00 68 1010.9
20160629030612 68 273 0.0 0.0 0.00 0.15 0.00 68 1011.0
20160629025613 68 273 0.0 0.0 0.00 0.15 0.00 67 1011.0
20160629024613 69 273 0.0 0.0 0.00 0.15 0.00 67 1010.9
20160629023612 69 272 0.0 0.0 0.00 0.15 0.00 65 1011.1
20160629022612 70 272 0.0 0.0 0.00 0.15 0.00 62 1011.1
20160629021613 70 272 0.0 0.0 0.00 0.15 0.00 62 1010.9
20160629020612 71 272 0.0 0.0 0.00 0.15 0.00 61 1010.8
20160629014612 73 272 0.0 0.0 0.00 0.15 0.00 58 1010.7
20160629013613 74 272 0.0 0.0 0.00 0.15 0.00 58 1010.6
20160629012613 75 272 0.0 0.0 0.00 0.15 0.00 57 1010.6
20160629011613 76 272 0.0 0.0 0.00 0.15 0.00 54 1010.5
20160629005612 79 272 0.0 0.0 0.00 0.15 0.00 50 1010.3
20160629004612 81 272 0.0 0.0 0.00 0.15 0.00 48 1010.2
20160629003613 82 11 0.0 0.0 0.00 0.15 0.00 46 1010.2
20160629002612 82 11 0.0 0.0 0.00 0.15 0.00 45 1010.2
20160629001613 83 11 0.0 0.0 0.00 0.15 0.00 45 1010.0
20160629000613 84 11 0.0 0.0 0.00 0.15 0.00 45 1009.9
20160628234613 85 11 0.0 0.0 0.00 0.15 0.00 43 1009.7
20160628233613 87 346 0.0 0.0 0.00 0.15 0.00 44 1009.7
20160628232613 88 336 0.0 3.0 0.00 0.15 0.00 44 1009.5
20160628231613 88 28 0.0 1.0 0.00 0.15 0.00 45 1009.3
20160628224613 88 15 2.0 7.0 0.00 0.15 0.00 45 1009.3
20160628223613 89 14 0.0 7.0 0.00 0.15 0.00 46 1009.4
20160628222613 89 14 1.0 3.0 0.00 0.15 0.00 46 1009.5
20160628221613 89 15 0.0 5.0 0.00 0.15 0.00 47 1009.6
20160628220613 88 13 2.0 7.0 0.00 0.15 0.00 47 1009.6
20160628215613 88 346 3.0 6.0 0.00 0.15 0.00 48 1009.7
20160628214613 88 321 1.0 5.0 0.00 0.15 0.00 51 1009.9
20160628212614 87 278 1.0 3.0 0.00 0.15 0.00 55 1010.0
20160628211614 87 274 1.0 7.0 0.00 0.15 0.00 57 1010.1
20160628210614 86 300 1.0 5.0 0.00 0.15 0.00 59 1010.1
20160628205613 86 252 5.0 7.0 0.00 0.15 0.00 59 1010.2
20160628204613 85 251 1.0 10.0 0.00 0.15 0.00 61 1010.1
20160628203614 85 250 3.0 8.0 0.00 0.15 0.00 62 1010.1
20160628202613 85 227 2.0 6.0 0.00 0.15 0.00 62 1010.4
20160628201613 85 234 0.0 9.0 0.00 0.15 0.00 63 1010.4
20160628200613 85 246 4.0 9.0 0.00 0.15 0.00 62 1010.4
20160628195614 85 239 6.0 10.0 0.00 0.15 0.00 63 1010.6
20160628194613 85 222 2.0 7.0 0.00 0.15 0.00 65 1010.6
20160628193613 85 221 2.0 6.0 0.00 0.15 0.00 64 1010.8
20160628192613 84 252 2.0 6.0 0.00 0.15 0.00 66 1011.1
20160628191614 84 355 3.0 9.0 0.00 0.15 0.00 65 1011.2
20160628190614 83 232 4.0 7.0 0.00 0.15 0.00 66 1011.2
20160628185613 83 234 2.0 7.0 0.00 0.15 0.00 69 1011.4
20160628184614 82 247 3.0 7.0 0.00 0.15 0.00 69 1011.4
20160628182614 82 203 1.0 5.0 0.00 0.15 0.00 74 1011.7
20160628181614 82 208 5.0 5.0 0.00 0.15 0.00 74 1011.7
20160628180613 82 166 2.0 6.0 0.00 0.15 0.00 75 1012.0
20160628175614 81 248 3.0 5.0 0.00 0.15 0.00 77 1012.1
20160628173614 81 146 0.0 2.0 0.00 0.15 0.00 78 1012.3
20160628172614 80 146 2.0 3.0 0.00 0.15 0.00 79 1012.4
20160628171614 80 146 1.0 3.0 0.00 0.15 0.00 79 1012.5
20160628170614 80 217 0.0 2.0 0.00 0.15 0.00 80 1012.6
20160628165614 79 217 0.0 3.0 0.00 0.15 0.00 81 1012.7
20160628164614 78 227 3.0 5.0 0.00 0.15 0.00 81 1012.7
20160628162614 78 225 2.0 3.0 0.00 0.15 0.00 83 1012.7